Moose Lake, MN

10:40 PM CST on November 14, 2019 (GMT -0600)
Moose Lake-Carlton County

Weather History for KMZH - October, 2019

Change the Weather History Date:

Sunday, October 13, 2019

  Actual Average Record
Temperature  
Mean Temperature 37 °F -  
Max Temperature 42 °F 56 °F 82 °F (1956)
Min Temperature 32 °F 34 °F 18 °F (1965)
Degree Days  
Heating Degree Days 28    
Moisture  
Dew Point 32 °F    
Average Humidity 85    
Maximum Humidity 93    
Minimum Humidity 66    
Precipitation  
Precipitation 0.02 in - - ()
Sea Level Pressure  
Sea Level Pressure 29.67 in    
Wind  
Wind Speed 6 mph (West)    
Max Wind Speed 14 mph    
Max Gust Speed 21 mph    
Visibility 10 miles    
Events Rain , Snow    
Averages and records for this station are not official NWS values.
T = Trace of Precipitation, MM = Missing Value Source: NWS Daily Summary

Daily Weather History Graph

Daily Weather History Graph

Search for Another Location

Airport or City:

Astronomy

Oct. 13, 2019 Rise Set
Actual Time 7:25 AM CDT 6:28 PM CDT
Civil Twilight 6:55 AM CDT 6:58 PM CDT
Nautical Twilight 6:20 AM CDT 7:33 PM CDT
Astronomical Twilight 5:45 AM CDT 8:08 PM CDT
Moon 6:54 PM CDT (10/13) 6:55 AM CDT (10/13)
Length of Visible Light 12h 03m
Length of Day
11h 03m
Full, 100% of the Moon is Illuminated
Oct 13
Full
Oct 13
Full
Oct 21
Last Quarter
Oct 27
New
Nov 4
First Quarter

Hourly Weather History & Observations

Time (CDT) Temp. Windchill Dew Point Humidity Pressure Visibility Wind Dir Wind Speed Gust Speed Precip Events Conditions
12:22 AM 32.0 °F 26.4 °F 30.2 °F 93% 29.52 in 10.0 mi WSW 5.8 mph - N/A   Mostly Cloudy
1:02 AM 33.8 °F 28.6 °F 30.2 °F 87% 29.52 in 10.0 mi WSW 5.8 mph - N/A   Overcast
2:22 AM 33.8 °F 28.6 °F 30.2 °F 87% 29.54 in 10.0 mi WSW 5.8 mph - N/A   Overcast
3:02 AM 33.8 °F 28.6 °F 30.2 °F 87% 29.54 in 10.0 mi WSW 5.8 mph - N/A   Overcast
3:43 AM 33.8 °F 29.6 °F 30.2 °F 87% 29.54 in 10.0 mi WSW 4.6 mph - N/A   Overcast
4:22 AM 33.8 °F 29.6 °F 30.2 °F 87% 29.55 in 10.0 mi WSW 4.6 mph - N/A   Overcast
5:02 AM 33.8 °F 27.7 °F 30.2 °F 87% 29.56 in 10.0 mi West 6.9 mph - N/A   Overcast
5:43 AM 33.8 °F 28.6 °F 30.2 °F 87% 29.57 in 10.0 mi West 5.8 mph - N/A   Overcast
6:22 AM 32.0 °F 25.6 °F 30.2 °F 93% 29.57 in 10.0 mi West 6.9 mph - N/A Snow Light Snow
7:02 AM 33.8 °F 28.6 °F 32.0 °F 93% 29.58 in 3.0 mi WSW 5.8 mph - N/A Snow Light Snow
7:42 AM 33.8 °F 29.6 °F 30.2 °F 87% 29.59 in 10.0 mi WSW 4.6 mph - N/A   Overcast
8:22 AM 33.8 °F 28.6 °F 30.2 °F 87% 29.60 in 10.0 mi WSW 5.8 mph - N/A   Overcast
9:02 AM 33.8 °F 27.7 °F 32.0 °F 93% 29.61 in 10.0 mi West 6.9 mph - N/A   Overcast
9:42 AM 35.6 °F 29.9 °F 32.0 °F 87% 29.62 in 7.0 mi West 6.9 mph - N/A Snow Light Snow
10:22 AM 35.6 °F 29.9 °F 32.0 °F 87% 29.64 in 10.0 mi West 6.9 mph - N/A   Overcast
11:02 AM 37.4 °F 30.3 °F 32.0 °F 81% 29.65 in 10.0 mi West 10.4 mph - N/A   Overcast
11:42 AM 39.2 °F 32.5 °F 32.0 °F 75% 29.66 in 10.0 mi West 10.4 mph 18.4 mph N/A   Overcast
12:23 PM 41.0 °F 35.2 °F 32.0 °F 70% 29.66 in 10.0 mi West 9.2 mph 19.6 mph N/A   Overcast
1:02 PM 39.2 °F 33.0 °F 33.8 °F 81% 29.67 in 7.0 mi NW 9.2 mph - N/A Rain Light Rain
1:42 PM 41.0 °F 33.9 °F 33.8 °F 76% 29.68 in 10.0 mi NNW 12.7 mph 17.3 mph N/A Rain Light Rain
2:22 PM 37.4 °F 32.8 °F 35.6 °F 93% 29.69 in 10.0 mi West 5.8 mph - 0.01 in   Scattered Clouds
3:02 PM 39.2 °F 32.5 °F 33.8 °F 81% 29.69 in 10.0 mi WNW 10.4 mph 17.3 mph N/A Rain Light Rain
3:44 PM 41.0 °F 37.1 °F 35.6 °F 81% 29.70 in 10.0 mi WNW 5.8 mph - N/A   Scattered Clouds
4:23 PM 41.0 °F 35.2 °F 33.8 °F 76% 29.72 in 10.0 mi West 9.2 mph 20.7 mph 0.01 in Rain Rain
5:02 PM 42.8 °F 35.8 °F 32.0 °F 66% 29.74 in 10.0 mi NNW 13.8 mph 19.6 mph N/A   Mostly Cloudy
5:43 PM 39.2 °F 35.9 °F 32.0 °F 75% 29.75 in 10.0 mi West 4.6 mph - N/A   Mostly Cloudy
6:24 PM 37.4 °F 33.8 °F 32.0 °F 81% 29.77 in 10.0 mi WNW 4.6 mph - N/A   Scattered Clouds
7:02 PM 37.4 °F 32.8 °F 32.0 °F 81% 29.79 in 10.0 mi NNW 5.8 mph - N/A   Mostly Cloudy
7:44 PM 35.6 °F 32.8 °F 32.0 °F 87% 29.81 in 10.0 mi NW 3.5 mph - N/A   Clear
8:23 PM 33.8 °F 30.8 °F 32.0 °F 93% 29.81 in 10.0 mi West 3.5 mph - N/A   Scattered Clouds
9:02 PM 33.8 °F - 32.0 °F 93% 29.83 in 10.0 mi Calm Calm - N/A   Scattered Clouds
9:42 PM 33.8 °F 30.8 °F 30.2 °F 87% 29.84 in 10.0 mi West 3.5 mph - N/A   Scattered Clouds
10:23 PM 33.8 °F 30.8 °F 30.2 °F 87% 29.85 in 10.0 mi WSW 3.5 mph - N/A   Clear
11:02 PM 32.0 °F 27.5 °F 28.4 °F 87% 29.85 in 10.0 mi West 4.6 mph - N/A   Scattered Clouds
11:43 PM 32.0 °F 27.5 °F 28.4 °F 87% 29.85 in 10.0 mi West 4.6 mph - N/A   Scattered Clouds